DW8078 Weather Reports


Display with metric or nautical units.
time (UTC)temp
F
wind
direction
speed
MPH
gust
MPH
rain 1hr
in
rain 24hr
in
rain mn
in
humidity
%
barometer
mb
20191213230018 36 187 6.0 14.0 0.00 0.10 0.00 88 990.0
20191213224515 36 171 6.0 16.0 0.00 0.10 0.10 88 989.9
20191213223104 36 192 7.0 12.0 0.00 0.10 0.10 88 990.0
20191213221519 37 234 5.0 15.0 0.00 0.10 0.10 88 990.0
20191213220034 37 193 5.0 12.0 0.00 0.10 0.10 88 989.9
20191213214514 37 169 6.0 13.0 0.00 0.10 0.10 88 990.0
20191213213024 37 210 6.0 12.0 0.00 0.10 0.10 88 989.9
20191213211511 37 188 5.0 14.0 0.00 0.10 0.10 88 989.7
20191213210048 37 212 7.0 15.0 0.00 0.10 0.10 89 989.7
20191213204517 37 164 5.0 15.0 0.00 0.10 0.10 89 989.8
20191213203010 37 190 7.0 15.0 0.00 0.10 0.10 89 989.9
20191213201515 37 209 7.0 16.0 0.00 0.10 0.10 89 989.6
20191213200002 36 175 7.0 15.0 0.00 0.10 0.10 89 989.2
20191213194820 36 172 7.0 21.0 0.00 0.10 0.10 89 989.3
20191213193251 36 157 8.0 18.0 0.00 0.10 0.10 89 989.4
20191213191851 36 200 12.0 20.0 0.00 0.10 0.10 90 989.4
20191213190234 36 191 6.0 16.0 0.00 0.10 0.10 90 989.7
20191213184719 36 191 10.0 18.0 0.00 0.10 0.10 90 989.7
20191213183310 36 193 7.0 21.0 0.00 0.10 0.10 90 989.6
20191213181705 36 177 9.0 17.0 0.00 0.10 0.10 90 989.7
20191213180202 35 167 12.0 17.0 0.00 0.10 0.10 90 989.7
20191213174833 35 178 10.0 18.0 0.00 0.10 0.10 90 989.9
20191213173252 35 217 8.0 15.0 0.01 0.10 0.10 90 990.0
20191213171900 35 189 7.0 15.0 0.01 0.10 0.10 90 989.9
20191213170139 35 185 8.0 17.0 0.01 0.10 0.10 90 989.9
20191213164800 35 167 9.0 16.0 0.01 0.10 0.10 90 990.0
20191213163147 35 174 8.0 17.0 0.00 0.09 0.09 90 990.0
20191213161850 35 191 9.0 21.0 0.00 0.09 0.09 90 990.0
20191213160159 35 206 8.0 20.0 0.00 0.09 0.09 90 990.1
20191213154737 35 159 9.0 20.0 0.00 0.09 0.09 90 990.2
20191213153252 35 188 9.0 18.0 0.02 0.09 0.09 90 990.1
20191213151733 35 170 9.0 20.0 0.02 0.09 0.09 90 990.1
20191213150106 35 181 11.0 18.0 0.03 0.09 0.09 90 989.9
20191213144726 34 150 11.0 21.0 0.04 0.09 0.09 90 990.1
20191213143131 35 176 11.0 19.0 0.02 0.08 0.08 90 990.1
20191213141650 35 184 9.0 18.0 0.02 0.07 0.07 90 990.0
20191213140208 35 161 11.0 19.0 0.02 0.06 0.06 90 990.0
20191213134750 35 171 8.0 18.0 0.02 0.06 0.06 90 990.2
20191213133143 35 174 9.0 19.0 0.02 0.06 0.06 90 990.1
20191213131654 35 190 11.0 19.0 0.02 0.05 0.05 90 990.2
20191213130119 36 161 7.0 17.0 0.02 0.05 0.05 90 990.3
20191213124637 36 155 8.0 15.0 0.02 0.04 0.04 89 990.4
20191213123155 36 173 9.0 15.0 0.01 0.03 0.03 89 990.7
20191213121558 36 188 11.0 18.0 0.01 0.03 0.03 89 990.8
20191213120137 36 145 10.0 18.0 0.00 0.02 0.02 90 991.0
20191213114625 36 180 12.0 19.0 0.00 0.02 0.02 89 991.1
20191213113118 36 155 8.0 17.0 0.00 0.02 0.02 90 991.2
20191213111600 36 167 9.0 18.0 0.00 0.02 0.02 90 991.4
20191213110114 36 161 8.0 16.0 0.00 0.02 0.02 90 991.8
20191213104541 36 175 9.0 16.0 0.00 0.02 0.02 90 992.1
20191213103146 35 180 9.0 16.0 0.00 0.02 0.02 90 992.4
20191213101703 35 180 9.0 20.0 0.00 0.02 0.02 90 992.7
20191213100059 35 184 9.0 20.0 0.00 0.02 0.02 90 992.9
20191213094642 35 175 5.0 16.0 0.00 0.02 0.02 90 993.4
20191213093049 35 191 8.0 18.0 0.00 0.02 0.02 90 993.5
20191213091559 35 187 9.0 16.0 0.00 0.02 0.02 90 993.6
20191213090036 35 189 13.0 22.0 0.00 0.02 0.02 90 993.8
20191213084535 35 173 9.0 17.0 0.01 0.02 0.02 90 993.9
20191213083020 35 160 8.0 15.0 0.01 0.02 0.02 90 994.1
20191213081603 34 193 8.0 17.0 0.01 0.02 0.02 90 994.2
20191213080031 34 166 7.0 15.0 0.01 0.02 0.02 90 994.4
20191213074527 34 175 8.0 15.0 0.01 0.02 0.02 90 994.7
20191213073007 34 189 10.0 14.0 0.01 0.02 0.02 90 995.0
20191213071527 34 190 8.0 12.0 0.01 0.02 0.02 90 995.1
20191213070001 34 163 7.0 15.0 0.01 0.02 0.02 89 995.3
20191213064652 34 183 6.0 12.0 0.01 0.01 0.01 90 995.5
20191213063240 34 165 6.0 12.0 0.01 0.01 0.01 89 995.8
20191213061646 34 198 7.0 11.0 0.01 0.01 0.01 89 996.0
20191213060148 34 184 6.0 12.0 0.01 0.01 0.01 89 996.1
20191213054701 34 180 7.0 14.0 0.00 0.00 0.00 88 996.3
20191213053344 34 185 9.0 15.0 0.00 0.00 0.00 88 996.4
20191213051650 33 182 9.0 16.0 0.00 0.00 0.00 88 996.5
20191213050144 33 159 6.0 11.0 0.00 0.00 0.00 87 996.9
20191213044740 33 156 7.0 10.0 0.00 0.00 0.00 86 997.2
20191213043217 33 165 8.0 16.0 0.00 0.00 0.00 85 997.3
20191213041721 33 162 8.0 14.0 0.00 0.00 0.00 85 997.6
20191213040130 33 161 7.0 14.0 0.00 0.00 0.00 84 997.9
20191213034729 33 163 7.0 13.0 0.00 0.00 0.00 85 998.1
20191213033108 33 157 5.0 10.0 0.00 0.00 0.00 85 998.4
20191213031718 32 175 5.0 11.0 0.00 0.00 0.00 86 998.9
20191213030047 32 189 5.0 11.0 0.00 0.00 0.00 86 999.0
20191213024611 32 180 0.0 9.0 0.00 0.00 0.00 86 999.1
20191213023044 31 169 4.0 10.0 0.00 0.00 0.00 86 999.5
20191213021648 31 163 6.0 12.0 0.00 0.00 0.00 86 999.7
20191213020106 31 163 6.0 10.0 0.00 0.00 0.00 86 999.9
20191213014535 31 163 6.0 10.0 0.00 0.00 0.00 85 1000.2
20191213013035 31 172 2.0 7.0 0.00 0.00 0.00 85 1000.5
20191213011529 31 172 1.0 5.0 0.00 0.00 0.00 85 1000.8
20191213010037 31 165 0.0 6.0 0.00 0.00 0.00 85 1001.1
20191213004518 31 176 2.0 8.0 0.00 0.00 0.00 84 1001.3
20191213003005 31 155 3.0 8.0 0.00 0.00 0.00 84 1001.5
20191213001517 31 191 0.0 7.0 0.00 0.00 0.00 84 1001.7
20191213000411 31 184 0.0 0.0 0.00 0.00 0.00 84 1001.9
20191212234750 32 187 0.0 0.0 0.00 0.00 0.00 84 1002.0
20191212233307 32 185 0.0 0.0 0.00 0.00 0.00 84 1002.2
20191212231732 32 191 0.0 0.0 0.00 0.00 0.00 84 1002.3